Regional Weather Roundup
Issued by NWS

Home | Current Version | Previous Version | Graphics & Text | Print | Product List | Glossary On
Versions: 1 2 3 4 5 6 7 8 9 10 11 12 13 14 15 16 17 18 19 20 21 22 23 24 25 26 27 28 29 30 31 32 33 34 35 36 37 38 39 40 41 42 43 44 45 46 47 48 49 50
000
ASUS43 KLSX 232307
RWRMO

WEATHER SUMMARY FOR MISSOURI
NATIONAL WEATHER SERVICE SPRINGFIELD MO
600 PM CDT SUN APR 23 2017

NOTE: "FAIR" INDICATES FEW OR NO CLOUDS BELOW 12,000 FEET WITH NO
       SIGNIFICANT WEATHER AND/OR OBSTRUCTIONS TO VISIBILITY.
       CURRENT SKY AND/OR WEATHER CONDITIONS ARE NOT AVAILABLE FOR
       CHILLICOTHE AND FARMINGTON.

MOZ001>031-035>038-043-044-053-054-240000-
...NORTHERN AND WESTERN MISSOURI...

CITY           SKY/WX    TMP DP  RH WIND       PRES   REMARKS
KANSAS CTY INT MOSUNNY   69  36  29 S9        30.02F
KANSAS C DTWN  SUNNY     72  31  22 CALM      30.01F
LEE`S SUMMIT   SUNNY     71  31  22 S7        30.05F
ST JOSEPH      SUNNY     72  32  23 S13       29.99F
CHILLICOTHE      N/A     71  30  21 VRB7      30.03F
KIRKSVILLE     SUNNY     70  33  25 SE8       30.03F

$$
MOZ066>068-077>081-088>096-101>105-240000-
...SOUTHWEST MISSOURI...

CITY           SKY/WX    TMP DP  RH WIND       PRES   REMARKS
SPRINGFIELD    SUNNY     68  34  28 N13       30.05S
JOPLIN         SUNNY     66  40  38 N8        30.07F
BRANSON        SUNNY     68  36  30 N12       30.04S

$$
MOZ032>034-039>042-045>050-055>058-069>072-240000-
...CENTRAL MISSOURI...

CITY           SKY/WX    TMP DP  RH WIND       PRES   REMARKS
COLUMBIA       SUNNY     71  32  23 NE5       30.05S
JEFFERSON CITY SUNNY     74  29  19 VRB7      30.04S
ROLLA          SUNNY     69  34  27 N9        30.02S
WHITEMAN AFB   SUNNY     69  33  26 CALM      30.04F
OSAGE BEACH    SUNNY     70  30  22 VRB3      30.06R

$$
MOZ051-052-059>065-240000-
...EAST CENTRAL MISSOURI...

CITY           SKY/WX    TMP DP  RH WIND       PRES   REMARKS
ST LOUIS INTL  SUNNY     73  29  19 NE13      30.01F
SPIRIT OF STL  SUNNY     71  28  20 NE9       30.01S
ST CHARLES     SUNNY     72  32  23 N9        30.01S

$$
MOZ072>076-082>087-097>100-106>115-240000-
...SOUTH CENTRAL AND SOUTHEAST MISSOURI...

CITY           SKY/WX    TMP DP  RH WIND       PRES   REMARKS
CAPE GIRARDEAU SUNNY     68  39  34 N16       29.93S
FARMINGTON     SUNNY     68  35  29 N8        30.00F
POPLAR BLUFF   SUNNY     69  39  33 NE13      29.94R
WEST PLAINS    SUNNY     69  32  25 N6        30.01R

$$



USA.gov is the U.S. government's official web portal to all federal, state and local government web resources and services.